Home   Weather   Taipei   Past weeks
Flag for Taiwan

Past Weather in Taipei, Taiwan — Yesterday and Last 2 Weeks

Now
81 °F

Partly sunny.


Feels Like: 83 °F
Forecast: 78 / 70 °F
Wind: 8 mph from Northeast

Location: Sungshan / Taipei

Current Time: Oct 18, 2019 at 12:11:17 pm

Latest Report: Oct 18, 2019 at 11:30 am


Visibility: N/A

Pressure: 30.07 "Hg

Humidity: 62%

Dew Point: 66 °F

Location of TaipeiLocation

Past Weather in Taipei — Graph

°F

Taipei Temperature Yesterday

Maximum temperature yesterday: 81 °F (at 11:00 am)
Minimum temperature yesterday: 73 °F (at 3:00 am)
Average temperature yesterday: 76 °F

High & Low Weather Summary for the Past Weeks

 TemperatureHumidityPressure
High95 °F (Oct 3, 2:00 pm)94% (Oct 8, 11:30 pm)30.21 "Hg (Oct 8, 11:30 pm)
Low68 °F (Oct 18, 4:00 am)49% (Oct 4, 12:00 pm)29.80 "Hg (Oct 11, 2:00 pm)
Average80 °F72%29.99 "Hg
* Reported Oct 3 10:00 am — Oct 18 10:30 am, Taipei. Weather by CustomWeather, © 2019

Note: Actual official high and low records may vary slightly from our data, if they occured in-between our weather recording intervals... More about our weather records

Advertising

Taipei Weather History for the Previous 24 Hours

Scroll right to see more
 ConditionsComfort  
Time TempWeatherWind HumidityBarometerVisibility
10:30 am
Fri, Oct 18
77 °FBroken clouds.9 mph69%30.09 "HgN/A
10:00 am75 °FPartly sunny.5 mph74%30.09 "HgN/A
9:30 am75 °FPartly sunny.7 mph74%30.09 "HgN/A
9:00 am75 °FPartly sunny.3 mph69%30.09 "HgN/A
8:30 am73 °FPartly sunny.3 mph74%30.09 "HgN/A
8:00 am75 °FPartly sunny.2 mph74%30.07 "HgN/A
7:30 am72 °FPartly sunny.3 mph78%30.07 "HgN/A
7:00 am72 °FPartly sunny.3 mph78%30.07 "HgN/A
6:30 am70 °FScattered clouds.2 mph83%30.07 "HgN/A
6:00 am70 °FPassing clouds.1 mph83%30.07 "HgN/A
5:00 am68 °FPassing clouds.1 mph83%30.04 "HgN/A
4:00 am68 °FPassing clouds.1 mph83%30.04 "HgN/A
3:00 am70 °FPassing clouds.1 mph78%30.04 "HgN/A
2:00 am70 °FPassing clouds.1 mph78%30.07 "HgN/A
1:00 am72 °FPassing clouds.2 mph73%30.07 "HgN/A
12:00 am73 °FPassing clouds.1 mph69%30.09 "HgN/A
10:30 pm
Thu, Oct 17
75 °FPassing clouds.3 mph65%30.09 "HgN/A
10:00 pm73 °FPassing clouds.2 mph69%30.09 "HgN/A
9:30 pm73 °FPassing clouds.2 mph69%30.09 "HgN/A
9:00 pm73 °FPassing clouds.5 mph65%30.09 "HgN/A
8:30 pm73 °FPassing clouds.5 mph65%30.09 "HgN/A
8:00 pm75 °FPassing clouds.7 mph61%30.09 "HgN/A
7:30 pm75 °FPassing clouds.6 mph61%30.09 "HgN/A
7:00 pm75 °FPassing clouds.10 mph65%30.07 "HgN/A
6:30 pm75 °FPassing clouds.9 mph69%30.07 "HgN/A
6:00 pm75 °FPassing clouds.9 mph69%30.04 "HgN/A
5:30 pm75 °FPassing clouds.12 mph69%30.04 "HgN/A
5:00 pm75 °FScattered clouds.13 mph69%30.04 "HgN/A
4:30 pm77 °FBroken clouds.10 mph65%30.01 "HgN/A
4:00 pm77 °FBroken clouds.14 mph65%30.01 "HgN/A
3:30 pm79 °FPartly sunny.12 mph61%30.01 "HgN/A
3:00 pm79 °FBroken clouds.8 mph61%30.01 "HgN/A
2:30 pm79 °FBroken clouds.10 mph61%30.01 "HgN/A
2:00 pm79 °FBroken clouds.10 mph61%30.01 "HgN/A
1:30 pm79 °FBroken clouds.8 mph61%30.04 "HgN/A
1:00 pm81 °FScattered clouds.13 mph58%30.04 "HgN/A
12:30 pm81 °FScattered clouds.9 mph54%30.07 "HgN/A
12:00 pm81 °FScattered clouds.8 mph54%30.07 "HgN/A
Weather by CustomWeather, © 2019

See weather overview